ABW129 UNNT-UUDD

Flight info

Callsign ABW129
Flight time 3h 42m
Altitude 38000
Route OGAMA1K OGAMA A308 ML A305 ABITI/K0898F400 M864 AGNOK/K0850F280 M864 KERUN P164 IDMOR M864 EKSER/K0895F400 M864 IBROT T535 OKNAN T787 URAGO URAGO3L
Aircraft B748/H-SDE3FGHIM1M2RWXY/LB1

Departure

Time 2026-05-06 17:18
Airport Novosibirsk Tolmachevo Airport (UNNT)

Arrival

Time 2026-05-06 21:00
Airport Domodedovo International Airport (UUDD)
Time Latitude Longitude Altitude Speed Heading
2026-05-06 16:34 55.00826 82.63775 379 ft 0 kts 171°
2026-05-06 17:05 55.00807 82.63780 380 ft 5 kts 169°
2026-05-06 17:05 55.00773 82.63825 380 ft 6 kts 118°
2026-05-06 17:05 55.00769 82.63938 380 ft 13 kts 82°
2026-05-06 17:05 55.00816 82.64127 380 ft 19 kts 69°
2026-05-06 17:06 55.00843 82.64335 380 ft 17 kts 82°
2026-05-06 17:06 55.00859 82.64536 380 ft 17 kts 81°
2026-05-06 17:06 55.00877 82.64736 380 ft 17 kts 81°
2026-05-06 17:06 55.00878 82.64934 380 ft 16 kts 102°
2026-05-06 17:07 55.00884 82.65116 380 ft 11 kts 63°
2026-05-06 17:07 55.00900 82.65132 380 ft 1 kts 14°
2026-05-06 17:07 55.00922 82.65127 380 ft 7 kts 352°
2026-05-06 17:07 55.00995 82.65111 379 ft 12 kts 351°
2026-05-06 17:08 55.01077 82.65087 379 ft 10 kts 351°
2026-05-06 17:08 55.01088 82.65084 379 ft 0 kts 351°
2026-05-06 17:12 55.01097 82.65082 379 ft 5 kts 351°
2026-05-06 17:12 55.01169 82.65061 379 ft 17 kts 351°
2026-05-06 17:12 55.01242 82.65091 379 ft 2 kts 54°
2026-05-06 17:13 55.01253 82.65162 380 ft 14 kts 79°
2026-05-06 17:13 55.01277 82.65421 380 ft 28 kts 81°
2026-05-06 17:13 55.01307 82.65765 379 ft 29 kts 81°
2026-05-06 17:13 55.01337 82.66100 379 ft 28 kts 81°
2026-05-06 17:14 55.01368 82.66436 381 ft 28 kts 81°
2026-05-06 17:14 55.01400 82.66768 381 ft 27 kts 80°
2026-05-06 17:14 55.01430 82.67092 380 ft 27 kts 81°
2026-05-06 17:14 55.01458 82.67417 377 ft 28 kts 82°
2026-05-06 17:15 55.01460 82.67678 378 ft 14 kts 97°
2026-05-06 17:15 55.01453 82.67751 378 ft 1 kts 85°
2026-05-06 17:15 55.01457 82.67761 378 ft 1 kts 60°
2026-05-06 17:15 55.01466 82.67768 378 ft 1 kts 28°
2026-05-06 17:16 55.01470 82.67768 378 ft 1 kts 12°
2026-05-06 17:16 55.01478 82.67763 378 ft 2 kts 342°
2026-05-06 17:16 55.01485 82.67744 378 ft 2 kts 298°
2026-05-06 17:16 55.01483 82.67713 378 ft 5 kts 263°
2026-05-06 17:17 55.01483 82.67706 378 ft 0 kts 263°
2026-05-06 17:17 55.01470 82.67557 377 ft 38 kts 261°
2026-05-06 17:17 55.01389 82.66661 381 ft 109 kts 261°
2026-05-06 17:17 55.01236 82.65015 381 ft 163 kts 261°
2026-05-06 17:18 55.01033 82.62910 774 ft 179 kts 261°
2026-05-06 17:18 55.00851 82.60855 1780 ft 165 kts 263°
2026-05-06 17:18 55.00655 82.58752 2145 ft 181 kts 263°
2026-05-06 17:18 55.00457 82.56566 2743 ft 183 kts 264°
2026-05-06 17:19 55.00274 82.54364 3320 ft 184 kts 266°
2026-05-06 17:19 55.00506 82.52197 3778 ft 189 kts 297°
2026-05-06 17:19 55.01383 82.50390 4030 ft 206 kts 316°
2026-05-06 17:19 55.02495 82.48647 4304 ft 223 kts 316°
2026-05-06 17:20 55.03690 82.46759 4607 ft 243 kts 315°
2026-05-06 17:20 55.04964 82.44702 5261 ft 254 kts 315°
2026-05-06 17:20 55.06267 82.42593 6077 ft 258 kts 314°
2026-05-06 17:20 55.07598 82.40442 6741 ft 264 kts 314°
2026-05-06 17:21 55.08944 82.38266 6933 ft 266 kts 314°
2026-05-06 17:21 55.10287 82.36096 6931 ft 263 kts 314°
2026-05-06 17:21 55.11624 82.33928 6932 ft 262 kts 314°
2026-05-06 17:21 55.12960 82.31759 6934 ft 262 kts 314°
2026-05-06 17:22 55.14279 82.29619 6933 ft 262 kts 314°
2026-05-06 17:22 55.15614 82.27449 6935 ft 262 kts 314°
2026-05-06 17:22 55.16948 82.25279 6931 ft 262 kts 314°
2026-05-06 17:22 55.18283 82.23105 6933 ft 262 kts 314°
2026-05-06 17:23 55.19617 82.20931 6935 ft 262 kts 314°
2026-05-06 17:23 55.20951 82.18750 6930 ft 262 kts 313°
2026-05-06 17:23 55.21977 82.16176 6951 ft 259 kts 294°
2026-05-06 17:23 55.22708 82.13287 6944 ft 259 kts 292°
2026-05-06 17:24 55.23414 82.10376 6952 ft 260 kts 292°
2026-05-06 17:24 55.24126 82.07465 6952 ft 260 kts 292°
2026-05-06 17:24 55.24847 82.04554 6945 ft 260 kts 292°
2026-05-06 17:24 55.25564 82.01651 6950 ft 260 kts 292°
2026-05-06 17:25 55.26280 81.98742 6954 ft 260 kts 292°
2026-05-06 17:25 55.26995 81.95828 6954 ft 260 kts 292°
2026-05-06 17:25 55.27711 81.92913 6955 ft 260 kts 292°
2026-05-06 17:25 55.28425 81.90000 6960 ft 260 kts 292°
2026-05-06 17:26 55.29139 81.87081 6952 ft 261 kts 292°
2026-05-06 17:26 55.29853 81.84160 6957 ft 261 kts 292°
2026-05-06 17:26 55.30557 81.81278 6965 ft 261 kts 292°
2026-05-06 17:26 55.31269 81.78355 6962 ft 261 kts 292°
2026-05-06 17:27 55.31982 81.75425 6966 ft 261 kts 292°
2026-05-06 17:27 55.32694 81.72499 6962 ft 260 kts 292°
2026-05-06 17:27 55.33405 81.69568 6963 ft 261 kts 292°
2026-05-06 17:27 55.34115 81.66643 6968 ft 261 kts 292°
2026-05-06 17:28 55.34824 81.63710 6959 ft 261 kts 292°
2026-05-06 17:28 55.35533 81.60780 6964 ft 261 kts 292°
2026-05-06 17:28 55.36242 81.57843 6972 ft 261 kts 292°
2026-05-06 17:28 55.36951 81.54903 6964 ft 261 kts 292°
2026-05-06 17:29 55.37658 81.51967 6966 ft 261 kts 292°
2026-05-06 17:29 55.38365 81.49026 6966 ft 261 kts 292°
2026-05-06 17:29 55.39073 81.46080 6974 ft 263 kts 292°
2026-05-06 17:29 55.39792 81.43097 7558 ft 264 kts 292°
2026-05-06 17:30 55.40506 81.40134 8474 ft 263 kts 292°
2026-05-06 17:30 55.41223 81.37154 9291 ft 265 kts 292°
2026-05-06 17:30 55.41943 81.34148 10058 ft 267 kts 292°
2026-05-06 17:30 55.42679 81.31074 10542 ft 279 kts 292°
2026-05-06 17:31 55.43456 81.27828 10855 ft 297 kts 292°
2026-05-06 17:31 55.44282 81.24373 11130 ft 315 kts 292°
2026-05-06 17:31 55.45156 81.20708 11409 ft 333 kts 292°
2026-05-06 17:31 55.46061 81.16907 12028 ft 339 kts 292°
2026-05-06 17:32 55.46940 81.13025 12738 ft 344 kts 287°
2026-05-06 17:32 55.47525 81.08919 13451 ft 347 kts 284°
2026-05-06 17:32 55.48095 81.04755 14123 ft 351 kts 284°
2026-05-06 17:32 55.48665 81.00604 14738 ft 355 kts 285°
2026-05-06 17:33 55.49261 80.96308 15357 ft 358 kts 285°
2026-05-06 17:33 55.49854 80.92017 15962 ft 362 kts 285°
2026-05-06 17:33 55.50441 80.87736 16568 ft 365 kts 285°
2026-05-06 17:33 55.51040 80.83356 17159 ft 369 kts 285°
2026-05-06 17:34 55.51643 80.78936 17754 ft 373 kts 285°
2026-05-06 17:34 55.52251 80.74465 18328 ft 376 kts 285°
2026-05-06 17:34 55.52863 80.69955 18827 ft 379 kts 285°
2026-05-06 17:34 55.53478 80.65410 19332 ft 382 kts 285°
2026-05-06 17:35 55.54095 80.60836 19817 ft 384 kts 285°
2026-05-06 17:35 55.54714 80.56230 20287 ft 387 kts 285°
2026-05-06 17:35 55.55335 80.51595 20741 ft 389 kts 285°
2026-05-06 17:36 55.56582 80.42243 21597 ft 393 kts 284°
2026-05-06 17:36 55.57207 80.37532 22008 ft 395 kts 284°
2026-05-06 17:36 55.57834 80.32793 22399 ft 397 kts 284°
2026-05-06 17:36 55.58463 80.28027 22778 ft 399 kts 284°
2026-05-06 17:37 55.59093 80.23234 23141 ft 401 kts 284°
2026-05-06 17:37 55.59722 80.18429 23485 ft 403 kts 284°
2026-05-06 17:37 55.60353 80.13595 23770 ft 404 kts 284°
2026-05-06 17:37 55.60986 80.08736 24055 ft 406 kts 284°
2026-05-06 17:38 55.61618 80.03860 24319 ft 407 kts 284°
2026-05-06 17:38 55.62241 79.99039 24563 ft 409 kts 284°
2026-05-06 17:38 55.62874 79.94129 24796 ft 410 kts 284°
2026-05-06 17:38 55.63506 79.89202 25035 ft 411 kts 284°
2026-05-06 17:39 55.64145 79.84257 25255 ft 413 kts 284°
2026-05-06 17:39 55.64789 79.79304 25484 ft 414 kts 284°
2026-05-06 17:39 55.65433 79.74327 25723 ft 415 kts 284°
2026-05-06 17:39 55.66072 79.69332 25963 ft 417 kts 283°
2026-05-06 17:40 55.66712 79.64318 26202 ft 418 kts 283°
2026-05-06 17:40 55.67354 79.59288 26454 ft 420 kts 283°
2026-05-06 17:40 55.67996 79.54238 26712 ft 421 kts 283°
2026-05-06 17:40 55.68639 79.49162 26970 ft 423 kts 283°
2026-05-06 17:41 55.69280 79.44075 27247 ft 424 kts 283°
2026-05-06 17:41 55.69921 79.38969 27530 ft 426 kts 283°
2026-05-06 17:41 55.70565 79.33830 27826 ft 427 kts 283°
2026-05-06 17:41 55.71208 79.28678 28116 ft 429 kts 283°
2026-05-06 17:42 55.71852 79.23500 28433 ft 431 kts 283°
2026-05-06 17:42 55.72494 79.18310 28747 ft 433 kts 283°
2026-05-06 17:42 55.73131 79.13150 29067 ft 434 kts 283°
2026-05-06 17:42 55.73776 79.07906 29396 ft 436 kts 283°
2026-05-06 17:43 55.74423 79.02618 29762 ft 439 kts 283°
2026-05-06 17:43 55.75069 78.97323 30111 ft 441 kts 283°
2026-05-06 17:43 55.75717 78.91988 30424 ft 443 kts 283°
2026-05-06 17:43 55.76366 78.86625 30737 ft 445 kts 283°
2026-05-06 17:44 55.77015 78.81240 31058 ft 447 kts 283°
2026-05-06 17:44 55.77664 78.75831 31387 ft 449 kts 283°
2026-05-06 17:44 55.78315 78.70388 31723 ft 452 kts 282°
2026-05-06 17:44 55.78966 78.64912 32066 ft 455 kts 283°
2026-05-06 17:45 55.79623 78.59382 32327 ft 459 kts 283°
2026-05-06 17:45 55.80283 78.53813 32631 ft 463 kts 283°
2026-05-06 17:45 55.80943 78.48194 32995 ft 465 kts 283°
2026-05-06 17:45 55.81600 78.42572 33509 ft 464 kts 283°
2026-05-06 17:46 55.82255 78.36957 34030 ft 463 kts 283°
2026-05-06 17:46 55.82907 78.31358 34470 ft 462 kts 283°
2026-05-06 17:46 55.83554 78.25759 34900 ft 462 kts 282°
2026-05-06 17:46 55.84199 78.20154 35320 ft 462 kts 282°
2026-05-06 17:47 55.84841 78.14557 35744 ft 462 kts 282°
2026-05-06 17:47 55.85481 78.08952 36134 ft 462 kts 282°
2026-05-06 17:47 55.86117 78.03358 36526 ft 462 kts 282°
2026-05-06 17:47 55.86752 77.97749 36888 ft 462 kts 282°
2026-05-06 17:48 55.87376 77.92213 37225 ft 463 kts 282°
2026-05-06 17:48 55.87999 77.86508 37589 ft 463 kts 281°
2026-05-06 17:48 55.88562 77.80939 37943 ft 463 kts 281°
2026-05-06 17:48 55.89136 77.75269 37997 ft 466 kts 281°
2026-05-06 17:49 55.90319 77.63989 38009 ft 461 kts 281°
2026-05-06 17:49 55.91461 77.52741 38011 ft 462 kts 281°
2026-05-06 17:50 55.92607 77.41473 38019 ft 462 kts 281°
2026-05-06 17:50 55.93736 77.30211 38008 ft 461 kts 281°
2026-05-06 17:51 55.94667 77.20850 38018 ft 461 kts 281°
2026-05-06 17:51 55.95965 77.07681 38015 ft 461 kts 281°
2026-05-06 17:52 55.96878 76.98321 38014 ft 461 kts 281°
2026-05-06 17:52 55.98142 76.85236 38018 ft 460 kts 281°
2026-05-06 17:53 55.99044 76.75799 38018 ft 460 kts 281°
2026-05-06 17:53 56.00110 76.64543 38018 ft 459 kts 281°
2026-05-06 17:54 56.01160 76.53356 38010 ft 460 kts 280°
2026-05-06 17:54 56.02206 76.42079 38007 ft 460 kts 280°
2026-05-06 17:55 56.03242 76.30804 38011 ft 459 kts 280°
2026-05-06 17:55 56.04268 76.19520 38016 ft 459 kts 280°
2026-05-06 17:56 56.05282 76.08243 38013 ft 459 kts 280°
2026-05-06 17:56 56.06286 75.96959 38013 ft 459 kts 280°
2026-05-06 17:57 56.07278 75.85683 38013 ft 459 kts 280°
2026-05-06 17:57 56.08261 75.74393 38007 ft 459 kts 280°
2026-05-06 17:58 56.09233 75.63103 38004 ft 459 kts 279°
2026-05-06 17:58 56.10188 75.51885 38006 ft 459 kts 279°
2026-05-06 17:59 56.11140 75.40591 38008 ft 458 kts 279°
2026-05-06 17:59 56.12080 75.29295 38008 ft 458 kts 279°
2026-05-06 18:00 56.13009 75.18003 38011 ft 457 kts 279°
2026-05-06 18:00 56.13927 75.06723 38004 ft 457 kts 279°
2026-05-06 18:01 56.14834 74.95439 38010 ft 458 kts 279°
2026-05-06 18:01 56.15732 74.84126 38008 ft 458 kts 279°
2026-05-06 18:02 56.16620 74.72819 38003 ft 458 kts 279°
2026-05-06 18:02 56.17492 74.61579 38002 ft 458 kts 279°
2026-05-06 18:03 56.18359 74.50258 38007 ft 458 kts 278°
2026-05-06 18:03 56.19216 74.38925 37997 ft 458 kts 278°
2026-05-06 18:04 56.20063 74.27596 37998 ft 458 kts 278°
2026-05-06 18:04 56.20898 74.16271 37994 ft 457 kts 278°
2026-05-06 18:05 56.21722 74.04953 37991 ft 457 kts 278°
2026-05-06 18:05 56.22518 73.93621 37991 ft 457 kts 275°
2026-05-06 18:06 56.22560 73.82174 38002 ft 459 kts 271°
2026-05-06 18:06 56.22521 73.70720 37996 ft 458 kts 271°
2026-05-06 18:07 56.22474 73.59267 37998 ft 458 kts 271°
2026-05-06 18:07 56.22415 73.47898 37998 ft 458 kts 271°
2026-05-06 18:08 56.22346 73.36454 37994 ft 458 kts 271°
2026-05-06 18:08 56.22266 73.25007 37989 ft 458 kts 270°
2026-05-06 18:09 56.22177 73.13570 37988 ft 458 kts 270°
2026-05-06 18:09 56.22075 73.02126 37993 ft 458 kts 270°
2026-05-06 18:10 56.21964 72.90688 37984 ft 458 kts 270°
2026-05-06 18:10 56.21842 72.79251 37986 ft 458 kts 270°
2026-05-06 18:11 56.21710 72.67811 37986 ft 458 kts 270°
2026-05-06 18:11 56.21567 72.56385 37985 ft 457 kts 270°
2026-05-06 18:12 56.21414 72.44956 37982 ft 458 kts 270°
2026-05-06 18:12 56.21251 72.33607 37991 ft 458 kts 270°
2026-05-06 18:13 56.21077 72.22180 37981 ft 458 kts 269°
2026-05-06 18:13 56.20891 72.10748 37986 ft 458 kts 269°
2026-05-06 18:14 56.20696 71.99311 37993 ft 458 kts 269°
2026-05-06 18:14 56.20490 71.87889 37986 ft 458 kts 269°
2026-05-06 18:15 56.20273 71.76455 37980 ft 458 kts 269°
2026-05-06 18:15 56.20046 71.65037 37973 ft 458 kts 269°
2026-05-06 18:16 56.19808 71.53613 37980 ft 458 kts 269°
2026-05-06 18:16 56.19560 71.42191 37989 ft 458 kts 269°
2026-05-06 18:17 56.19301 71.30758 37988 ft 458 kts 268°
2026-05-06 18:17 56.19034 71.19424 37976 ft 458 kts 268°
2026-05-06 18:18 56.18754 71.08003 37983 ft 458 kts 268°
2026-05-06 18:18 56.18464 70.96590 37982 ft 458 kts 268°
2026-05-06 18:19 56.18163 70.85180 37983 ft 457 kts 268°
2026-05-06 18:19 56.17852 70.73783 37979 ft 457 kts 268°
2026-05-06 18:20 56.17531 70.62386 37975 ft 457 kts 268°
2026-05-06 18:20 56.17199 70.50994 37980 ft 457 kts 268°
2026-05-06 18:21 56.16857 70.39605 37979 ft 457 kts 268°
2026-05-06 18:21 56.16504 70.28220 37977 ft 457 kts 267°
2026-05-06 18:22 56.16141 70.16832 37979 ft 457 kts 267°
2026-05-06 18:22 56.15767 70.05451 37973 ft 457 kts 267°
2026-05-06 18:23 56.15386 69.94150 37976 ft 457 kts 267°
2026-05-06 18:23 56.14992 69.82779 37980 ft 457 kts 267°
2026-05-06 18:24 56.14587 69.71405 37975 ft 457 kts 266°
2026-05-06 18:24 56.14316 69.60026 37991 ft 457 kts 269°
2026-05-06 18:25 56.14202 69.48629 37992 ft 457 kts 269°
2026-05-06 18:25 56.14706 69.37302 37986 ft 458 kts 280°
2026-05-06 18:26 56.15878 69.26086 37989 ft 457 kts 280°
2026-05-06 18:26 56.17037 69.14873 37984 ft 457 kts 280°
2026-05-06 18:27 56.18178 69.03726 37987 ft 457 kts 279°
2026-05-06 18:27 56.19317 68.92498 37985 ft 457 kts 279°
2026-05-06 18:28 56.20447 68.81255 37982 ft 458 kts 279°
2026-05-06 18:28 56.21567 68.70005 37982 ft 457 kts 279°
2026-05-06 18:29 56.22677 68.58747 37981 ft 458 kts 279°
2026-05-06 18:29 56.23775 68.47494 37980 ft 457 kts 279°
2026-05-06 18:30 56.24864 68.36220 37977 ft 458 kts 279°
2026-05-06 18:30 56.25942 68.24947 37975 ft 458 kts 279°
2026-05-06 18:31 56.27012 68.13654 37967 ft 458 kts 279°
2026-05-06 18:31 56.28071 68.02360 37974 ft 458 kts 278°
2026-05-06 18:32 56.29120 67.91048 37973 ft 458 kts 278°
2026-05-06 18:32 56.30159 67.79734 37975 ft 458 kts 278°
2026-05-06 18:33 56.31188 67.68413 37971 ft 458 kts 278°
2026-05-06 18:33 56.32207 67.57080 37967 ft 459 kts 278°
2026-05-06 18:34 56.32714 67.51391 38261 ft 460 kts 278°
2026-05-06 18:34 56.33212 67.45777 38649 ft 460 kts 278°
2026-05-06 18:34 56.33721 67.40009 38955 ft 460 kts 278°
2026-05-06 18:34 56.34213 67.34393 39230 ft 460 kts 278°
2026-05-06 18:35 56.34710 67.28704 39494 ft 460 kts 278°
2026-05-06 18:35 56.35204 67.23007 39761 ft 460 kts 278°
2026-05-06 18:35 56.35697 67.17297 39944 ft 463 kts 278°
2026-05-06 18:35 56.36189 67.11556 39949 ft 462 kts 278°
2026-05-06 18:36 56.37151 67.00254 39942 ft 459 kts 278°
2026-05-06 18:36 56.38110 66.88849 39944 ft 460 kts 278°
2026-05-06 18:37 56.38907 66.79285 39939 ft 460 kts 277°
2026-05-06 18:37 56.39998 66.66024 39940 ft 460 kts 277°
2026-05-06 18:38 56.40926 66.54603 39939 ft 460 kts 277°
2026-05-06 18:38 56.41848 66.43168 39934 ft 460 kts 277°
2026-05-06 18:39 56.42763 66.31728 39935 ft 461 kts 277°
2026-05-06 18:40 56.44114 66.14535 39930 ft 461 kts 277°
2026-05-06 18:40 56.45004 66.03049 39933 ft 461 kts 277°
2026-05-06 18:41 56.45876 65.91645 39928 ft 461 kts 277°
2026-05-06 18:41 56.46744 65.80147 39928 ft 461 kts 277°
2026-05-06 18:42 56.47601 65.68654 39928 ft 461 kts 277°
2026-05-06 18:42 56.48449 65.57150 39926 ft 461 kts 276°
2026-05-06 18:43 56.49285 65.45643 39926 ft 461 kts 276°
2026-05-06 18:43 56.50112 65.34123 39929 ft 461 kts 276°
2026-05-06 18:44 56.50932 65.22593 39923 ft 462 kts 276°
2026-05-06 18:44 56.51741 65.11058 39924 ft 462 kts 276°
2026-05-06 18:45 56.52534 64.99590 39924 ft 462 kts 276°
2026-05-06 18:45 56.53322 64.88046 39923 ft 462 kts 276°
2026-05-06 18:46 56.54099 64.76487 39924 ft 462 kts 276°
2026-05-06 18:46 56.54866 64.64926 39924 ft 462 kts 276°
2026-05-06 18:47 56.55622 64.53355 39919 ft 462 kts 276°
2026-05-06 18:47 56.56367 64.41786 39919 ft 462 kts 275°
2026-05-06 18:48 56.57101 64.30209 39915 ft 462 kts 275°
2026-05-06 18:48 56.57825 64.18630 39916 ft 462 kts 275°
2026-05-06 18:49 56.58538 64.07035 39910 ft 463 kts 275°
2026-05-06 18:49 56.59123 63.97398 39914 ft 463 kts 275°
2026-05-06 18:50 56.59817 63.85787 39913 ft 463 kts 275°
2026-05-06 18:50 56.60501 63.74162 39905 ft 463 kts 275°
2026-05-06 18:51 56.61174 63.62534 39907 ft 463 kts 275°
2026-05-06 18:51 56.61844 63.50894 39906 ft 463 kts 275°
2026-05-06 18:52 56.62503 63.39256 39907 ft 464 kts 275°
2026-05-06 18:52 56.63151 63.27604 39908 ft 463 kts 275°
2026-05-06 18:53 56.63783 63.16036 39900 ft 464 kts 275°
2026-05-06 18:53 56.64409 63.04377 39901 ft 464 kts 274°
2026-05-06 18:54 56.65025 62.92720 39896 ft 464 kts 274°
2026-05-06 18:54 56.65630 62.81043 39900 ft 464 kts 274°
2026-05-06 18:55 56.66224 62.69371 39902 ft 464 kts 274°
2026-05-06 18:55 56.66807 62.57687 39894 ft 464 kts 274°
2026-05-06 18:56 56.67379 62.46003 39887 ft 464 kts 274°
2026-05-06 18:56 56.67940 62.34309 39889 ft 464 kts 274°
2026-05-06 18:57 56.68490 62.22626 39886 ft 464 kts 274°
2026-05-06 18:57 56.69030 62.10920 39895 ft 464 kts 274°
2026-05-06 18:58 56.69555 61.99302 39888 ft 464 kts 274°
2026-05-06 18:58 56.70072 61.87600 39888 ft 465 kts 274°
2026-05-06 18:59 56.70579 61.75878 39890 ft 465 kts 273°
2026-05-06 18:59 56.71076 61.64149 39893 ft 464 kts 273°
2026-05-06 19:00 56.71561 61.52427 39889 ft 465 kts 273°
2026-05-06 19:00 56.72030 61.40824 39878 ft 464 kts 273°
2026-05-06 19:01 56.72493 61.29090 39885 ft 464 kts 273°
2026-05-06 19:01 56.72946 61.17338 39896 ft 466 kts 273°
2026-05-06 19:02 56.73386 61.05640 39889 ft 466 kts 273°
2026-05-06 19:02 56.73817 60.93865 39888 ft 466 kts 272°
2026-05-06 19:03 56.74237 60.82087 39895 ft 466 kts 272°
2026-05-06 19:03 56.74984 60.70369 39882 ft 466 kts 276°
2026-05-06 19:04 56.75815 60.58643 39892 ft 466 kts 276°
2026-05-06 19:04 56.76625 60.46922 39888 ft 466 kts 276°
2026-05-06 19:05 56.77431 60.35196 39876 ft 466 kts 276°
2026-05-06 19:05 56.78222 60.23463 39878 ft 466 kts 276°
2026-05-06 19:06 56.79003 60.11728 39881 ft 466 kts 275°
2026-05-06 19:06 56.79707 59.99982 39873 ft 466 kts 275°
2026-05-06 19:07 56.80421 59.88214 39878 ft 466 kts 275°
2026-05-06 19:07 56.81112 59.76542 39874 ft 466 kts 275°
2026-05-06 19:08 56.81797 59.64782 39880 ft 466 kts 275°
2026-05-06 19:08 56.82472 59.53032 39865 ft 465 kts 275°
2026-05-06 19:09 56.83133 59.41300 39862 ft 465 kts 275°
2026-05-06 19:09 56.83785 59.29539 39867 ft 465 kts 275°
2026-05-06 19:10 56.84425 59.17778 39864 ft 465 kts 275°
2026-05-06 19:10 56.85039 59.06010 39864 ft 465 kts 271°
2026-05-06 19:11 56.85259 58.94201 39854 ft 465 kts 271°
2026-05-06 19:11 56.85474 58.82391 39856 ft 465 kts 271°
2026-05-06 19:12 56.85672 58.70655 39851 ft 465 kts 271°
2026-05-06 19:12 56.85862 58.58846 39853 ft 465 kts 271°
2026-05-06 19:13 56.86040 58.47033 39852 ft 465 kts 270°
2026-05-06 19:13 56.86207 58.35219 39852 ft 465 kts 270°
2026-05-06 19:14 56.86363 58.23407 39850 ft 465 kts 270°
2026-05-06 19:14 56.86508 58.11590 39847 ft 465 kts 270°
2026-05-06 19:15 56.86642 57.99775 39845 ft 465 kts 270°
2026-05-06 19:15 56.86764 57.87962 39845 ft 465 kts 270°
2026-05-06 19:16 56.86876 57.76143 39844 ft 465 kts 270°
2026-05-06 19:16 56.86976 57.64330 39846 ft 465 kts 270°
2026-05-06 19:17 56.87065 57.52522 39842 ft 464 kts 270°
2026-05-06 19:17 56.87143 57.40717 39840 ft 464 kts 270°
2026-05-06 19:18 56.87209 57.28919 39840 ft 464 kts 270°
2026-05-06 19:18 56.87265 57.17201 39841 ft 464 kts 270°
2026-05-06 19:19 56.87309 57.05413 39834 ft 464 kts 269°
2026-05-06 19:19 56.87342 56.93621 39836 ft 464 kts 269°
2026-05-06 19:20 56.87365 56.81826 39832 ft 464 kts 269°
2026-05-06 19:20 56.87376 56.70013 39829 ft 464 kts 269°
2026-05-06 19:21 56.87376 56.58204 39828 ft 464 kts 269°
2026-05-06 19:21 56.87365 56.46397 39830 ft 464 kts 269°
2026-05-06 19:22 56.87485 56.34586 39825 ft 465 kts 270°
2026-05-06 19:22 56.87574 56.22778 39828 ft 465 kts 270°
2026-05-06 19:23 56.87692 56.10961 39828 ft 464 kts 270°
2026-05-06 19:23 56.87773 55.99160 39828 ft 464 kts 270°
2026-05-06 19:24 56.87789 55.87432 39832 ft 464 kts 268°
2026-05-06 19:24 56.87659 55.75642 39821 ft 464 kts 268°
2026-05-06 19:25 56.87505 55.63841 39821 ft 464 kts 268°
2026-05-06 19:25 56.87342 55.52049 39820 ft 464 kts 268°
2026-05-06 19:26 56.87170 55.40259 39819 ft 464 kts 268°
2026-05-06 19:26 56.86984 55.28476 39820 ft 464 kts 268°
2026-05-06 19:27 56.86789 55.16685 39816 ft 464 kts 267°
2026-05-06 19:27 56.86582 55.04908 39820 ft 464 kts 267°
2026-05-06 19:28 56.86366 54.93200 39821 ft 464 kts 267°
2026-05-06 19:28 56.86137 54.81427 39814 ft 464 kts 267°
2026-05-06 19:29 56.85897 54.69657 39816 ft 464 kts 267°
2026-05-06 19:29 56.85648 54.57879 39813 ft 464 kts 268°
2026-05-06 19:30 56.85524 54.46094 39811 ft 464 kts 268°
2026-05-06 19:30 56.85353 54.34333 39812 ft 463 kts 268°
2026-05-06 19:31 56.85181 54.22571 39813 ft 463 kts 268°
2026-05-06 19:31 56.84877 54.04952 39812 ft 463 kts 267°
2026-05-06 19:32 56.84580 53.93284 39813 ft 463 kts 267°
2026-05-06 19:32 56.84309 53.81541 39810 ft 463 kts 267°
2026-05-06 19:33 56.84007 53.69801 39808 ft 463 kts 266°
2026-05-06 19:33 56.83704 53.58077 39807 ft 462 kts 266°
2026-05-06 19:34 56.83386 53.46350 39811 ft 462 kts 267°
2026-05-06 19:34 56.83379 53.34599 39809 ft 463 kts 269°
2026-05-06 19:35 56.83375 53.22843 39809 ft 462 kts 269°
2026-05-06 19:35 56.83370 53.11110 39809 ft 463 kts 269°
2026-05-06 19:36 56.83348 52.99357 39809 ft 463 kts 269°
2026-05-06 19:36 56.83312 52.87690 39811 ft 463 kts 269°
2026-05-06 19:37 56.83222 52.75936 39816 ft 463 kts 269°
2026-05-06 19:37 56.83157 52.66172 39813 ft 463 kts 269°
2026-05-06 19:38 56.83042 52.52426 39813 ft 463 kts 268°
2026-05-06 19:38 56.82935 52.40684 39815 ft 463 kts 268°
2026-05-06 19:39 56.82815 52.28931 39807 ft 463 kts 268°
2026-05-06 19:39 56.82708 52.17172 39815 ft 463 kts 271°
2026-05-06 19:40 56.82895 52.05411 39810 ft 463 kts 271°
2026-05-06 19:40 56.83060 51.93652 39811 ft 463 kts 271°
2026-05-06 19:41 56.83220 51.81979 39812 ft 463 kts 270°
2026-05-06 19:41 56.83366 51.70223 39815 ft 463 kts 270°
2026-05-06 19:42 56.83504 51.58436 39813 ft 464 kts 270°
2026-05-06 19:42 56.83309 51.46686 39810 ft 463 kts 265°
2026-05-06 19:43 56.82862 51.34944 39811 ft 464 kts 265°
2026-05-06 19:43 56.82414 51.23198 39813 ft 464 kts 265°
2026-05-06 19:44 56.81949 51.11453 39814 ft 464 kts 265°
2026-05-06 19:44 56.81476 50.99705 39815 ft 464 kts 265°
2026-05-06 19:45 56.81074 50.89956 39813 ft 464 kts 265°
2026-05-06 19:45 56.80580 50.78215 39817 ft 464 kts 265°
2026-05-06 19:46 56.80074 50.66471 39821 ft 464 kts 265°
2026-05-06 19:46 56.79557 50.54728 39821 ft 464 kts 265°
2026-05-06 19:47 56.79030 50.42985 39822 ft 465 kts 265°
2026-05-06 19:47 56.78490 50.31236 39825 ft 465 kts 265°
2026-05-06 19:48 56.77939 50.19483 39828 ft 465 kts 265°
2026-05-06 19:48 56.77382 50.07818 39830 ft 465 kts 265°
2026-05-06 19:49 56.76809 49.96078 39828 ft 465 kts 264°
2026-05-06 19:49 56.76226 49.84337 39836 ft 465 kts 264°
2026-05-06 19:50 56.75879 49.72576 39831 ft 465 kts 267°
2026-05-06 19:50 56.75558 49.60815 39837 ft 464 kts 267°
2026-05-06 19:51 56.75246 49.49058 39841 ft 464 kts 266°
2026-05-06 19:51 56.74912 49.37318 39848 ft 464 kts 266°
2026-05-06 19:52 56.74573 49.25574 39847 ft 464 kts 266°
2026-05-06 19:52 56.74220 49.13855 39852 ft 463 kts 266°
2026-05-06 19:53 56.73860 49.02204 39851 ft 463 kts 266°
2026-05-06 19:53 56.73487 48.90491 39855 ft 463 kts 266°
2026-05-06 19:54 56.73102 48.78781 39860 ft 463 kts 266°
2026-05-06 19:54 56.72707 48.67076 39861 ft 463 kts 266°
2026-05-06 19:55 56.72301 48.55379 39867 ft 463 kts 266°
2026-05-06 19:55 56.71886 48.43684 39867 ft 463 kts 266°
2026-05-06 19:56 56.71462 48.31985 39868 ft 463 kts 266°
2026-05-06 19:56 56.71025 48.20294 39870 ft 463 kts 266°
2026-05-06 19:57 56.70581 48.08674 39872 ft 463 kts 266°
2026-05-06 19:57 56.70123 47.96991 39874 ft 463 kts 266°
2026-05-06 19:58 56.69654 47.85308 39874 ft 462 kts 265°
2026-05-06 19:58 56.69176 47.73652 39877 ft 462 kts 265°
2026-05-06 19:59 56.68686 47.61997 39884 ft 462 kts 265°
2026-05-06 19:59 56.68186 47.50356 39887 ft 462 kts 265°
2026-05-06 20:00 56.67675 47.38716 39887 ft 462 kts 265°
2026-05-06 20:00 56.66792 47.27182 39895 ft 462 kts 253°
2026-05-06 20:01 56.64641 47.16147 39890 ft 463 kts 251°
2026-05-06 20:01 56.62445 47.05229 39890 ft 463 kts 251°
2026-05-06 20:02 56.60231 46.94237 39895 ft 464 kts 251°
2026-05-06 20:02 56.58001 46.83253 39892 ft 464 kts 251°
2026-05-06 20:03 56.55762 46.72274 39895 ft 464 kts 250°
2026-05-06 20:03 56.53513 46.61308 39896 ft 464 kts 250°
2026-05-06 20:04 56.51254 46.50357 39894 ft 464 kts 250°
2026-05-06 20:04 56.48988 46.39434 39892 ft 463 kts 250°
2026-05-06 20:05 56.46714 46.28526 39892 ft 463 kts 250°
2026-05-06 20:05 56.44429 46.17631 39892 ft 463 kts 250°
2026-05-06 20:06 56.42139 46.06766 39892 ft 463 kts 250°
2026-05-06 20:06 56.39838 45.95909 39889 ft 462 kts 250°
2026-05-06 20:07 56.37542 45.85130 39889 ft 463 kts 250°
2026-05-06 20:07 56.35221 45.74292 39894 ft 463 kts 250°
2026-05-06 20:08 56.32887 45.63454 39894 ft 464 kts 250°
2026-05-06 20:08 56.30543 45.52624 39898 ft 464 kts 250°
2026-05-06 20:09 56.28188 45.41800 39893 ft 464 kts 249°
2026-05-06 20:09 56.25822 45.30983 39890 ft 464 kts 249°
2026-05-06 20:10 56.23455 45.20187 39896 ft 464 kts 249°
2026-05-06 20:10 56.21078 45.09412 39893 ft 464 kts 249°
2026-05-06 20:11 56.18690 44.98639 39893 ft 464 kts 249°
2026-05-06 20:11 56.16292 44.87878 39894 ft 464 kts 249°
2026-05-06 20:12 56.13886 44.77137 39895 ft 464 kts 249°
2026-05-06 20:12 56.11593 44.66408 39913 ft 463 kts 256°
2026-05-06 20:13 56.10653 44.54993 39913 ft 464 kts 264°
2026-05-06 20:13 56.09972 44.43497 39915 ft 464 kts 264°
2026-05-06 20:14 56.09272 44.32028 39915 ft 463 kts 264°
2026-05-06 20:14 56.08566 44.20559 39915 ft 464 kts 264°
2026-05-06 20:15 56.07848 44.09090 39918 ft 464 kts 264°
2026-05-06 20:15 56.07118 43.97615 39920 ft 464 kts 264°
2026-05-06 20:16 56.06379 43.86157 39921 ft 464 kts 263°
2026-05-06 20:16 56.05629 43.74699 39920 ft 463 kts 263°
2026-05-06 20:17 56.04874 43.63344 39916 ft 463 kts 263°
2026-05-06 20:17 56.04104 43.51910 39920 ft 463 kts 263°
2026-05-06 20:18 56.03324 43.40489 39919 ft 463 kts 263°
2026-05-06 20:18 56.02941 43.29025 39920 ft 464 kts 271°
2026-05-06 20:19 56.03144 43.17503 39919 ft 464 kts 271°
2026-05-06 20:19 56.03324 43.05968 39921 ft 464 kts 271°
2026-05-06 20:20 56.03499 42.94441 39927 ft 464 kts 271°
2026-05-06 20:20 56.03662 42.82916 39923 ft 462 kts 271°
2026-05-06 20:21 56.03813 42.71405 39923 ft 464 kts 271°
2026-05-06 20:21 56.03952 42.59944 39919 ft 464 kts 270°
2026-05-06 20:22 56.03719 42.54201 39937 ft 464 kts 259°
2026-05-06 20:22 56.02922 42.48624 39937 ft 465 kts 250°
2026-05-06 20:22 56.00515 42.37887 39928 ft 465 kts 249°
2026-05-06 20:23 55.98065 42.27195 39934 ft 465 kts 249°
2026-05-06 20:23 55.95615 42.16496 39932 ft 465 kts 248°
2026-05-06 20:24 55.93150 42.05823 39933 ft 466 kts 248°
2026-05-06 20:24 55.90673 41.95135 39936 ft 466 kts 248°
2026-05-06 20:25 55.88189 41.84476 39933 ft 466 kts 248°
2026-05-06 20:25 55.84781 41.74784 39944 ft 470 kts 228°
2026-05-06 20:26 55.80253 41.66394 39934 ft 471 kts 227°
2026-05-06 20:26 55.75699 41.58038 39941 ft 470 kts 227°
2026-05-06 20:27 55.71155 41.49690 39934 ft 470 kts 227°
2026-05-06 20:27 55.66605 41.41369 39934 ft 470 kts 227°
2026-05-06 20:28 55.62073 41.33023 39940 ft 469 kts 232°
2026-05-06 20:28 55.58810 41.23119 39952 ft 468 kts 252°
2026-05-06 20:29 55.57673 41.11992 39133 ft 458 kts 268°
2026-05-06 20:29 55.57579 41.06361 38020 ft 459 kts 268°
2026-05-06 20:29 55.57480 41.00811 37533 ft 445 kts 268°
2026-05-06 20:30 55.57375 40.95472 36990 ft 436 kts 268°
2026-05-06 20:30 55.57161 40.84725 35852 ft 448 kts 268°
2026-05-06 20:30 55.57049 40.79103 35217 ft 465 kts 268°
2026-05-06 20:31 55.56929 40.73348 34561 ft 470 kts 268°
2026-05-06 20:31 55.56803 40.67566 33892 ft 471 kts 268°
2026-05-06 20:31 55.56678 40.61795 33165 ft 469 kts 268°
2026-05-06 20:31 55.56551 40.56051 32453 ft 468 kts 268°
2026-05-06 20:32 55.56420 40.50301 31738 ft 470 kts 268°
2026-05-06 20:32 55.56285 40.44500 30974 ft 475 kts 268°
2026-05-06 20:32 55.56130 40.38658 30200 ft 477 kts 267°
2026-05-06 20:32 55.55958 40.32798 29371 ft 476 kts 267°
2026-05-06 20:33 55.55792 40.26992 28684 ft 469 kts 267°
2026-05-06 20:33 55.55636 40.21313 28359 ft 455 kts 267°
2026-05-06 20:33 55.55481 40.15846 28244 ft 438 kts 267°
2026-05-06 20:33 55.55324 40.10565 28119 ft 422 kts 267°
2026-05-06 20:34 55.55170 40.05469 28000 ft 408 kts 267°
2026-05-06 20:34 55.55032 40.00547 27920 ft 394 kts 270°
2026-05-06 20:34 55.55195 39.95748 27636 ft 393 kts 275°
2026-05-06 20:34 55.55465 39.91037 27311 ft 389 kts 276°
2026-05-06 20:35 55.55745 39.86311 27007 ft 386 kts 275°
2026-05-06 20:35 55.55994 39.81605 26705 ft 384 kts 275°
2026-05-06 20:35 55.56232 39.76914 26402 ft 382 kts 275°
2026-05-06 20:35 55.56477 39.72253 26101 ft 380 kts 275°
2026-05-06 20:36 55.56725 39.67610 25803 ft 379 kts 275°
2026-05-06 20:36 55.56967 39.62991 25507 ft 377 kts 275°
2026-05-06 20:36 55.57202 39.58389 25209 ft 375 kts 275°
2026-05-06 20:36 55.57435 39.53813 24917 ft 373 kts 275°
2026-05-06 20:37 55.57734 39.49269 24618 ft 371 kts 277°
2026-05-06 20:37 55.58027 39.44751 24328 ft 369 kts 275°
2026-05-06 20:37 55.58285 39.40245 24029 ft 367 kts 275°
2026-05-06 20:37 55.58568 39.35773 23746 ft 366 kts 276°
2026-05-06 20:38 55.58866 39.31319 23448 ft 364 kts 276°
2026-05-06 20:38 55.59152 39.26893 23136 ft 361 kts 276°
2026-05-06 20:38 55.59424 39.22497 22852 ft 359 kts 275°
2026-05-06 20:38 55.59696 39.18130 22560 ft 357 kts 275°
2026-05-06 20:39 55.59969 39.13781 22276 ft 355 kts 275°
2026-05-06 20:39 55.60239 39.09454 21997 ft 353 kts 275°
2026-05-06 20:39 55.60504 39.05147 21725 ft 351 kts 275°
2026-05-06 20:39 55.60767 39.00861 21440 ft 350 kts 275°
2026-05-06 20:40 55.61027 38.96600 21166 ft 348 kts 275°
2026-05-06 20:40 55.61284 38.92357 20893 ft 346 kts 275°
2026-05-06 20:40 55.61536 38.88186 20621 ft 345 kts 275°
2026-05-06 20:40 55.61767 38.83976 20344 ft 343 kts 274°
2026-05-06 20:41 55.61978 38.79787 20078 ft 342 kts 274°
2026-05-06 20:41 55.62196 38.75610 19812 ft 340 kts 274°
2026-05-06 20:41 55.62419 38.71450 19544 ft 339 kts 274°
2026-05-06 20:41 55.62638 38.67308 19282 ft 338 kts 274°
2026-05-06 20:42 55.62852 38.63183 19017 ft 336 kts 274°
2026-05-06 20:42 55.63061 38.59084 18923 ft 334 kts 274°
2026-05-06 20:42 55.63265 38.54969 18881 ft 337 kts 274°
2026-05-06 20:42 55.63466 38.50861 18633 ft 331 kts 274°
2026-05-06 20:43 55.63663 38.46843 18399 ft 325 kts 274°
2026-05-06 20:43 55.63856 38.42901 18178 ft 318 kts 274°
2026-05-06 20:43 55.64042 38.39035 17949 ft 312 kts 274°
2026-05-06 20:43 55.64224 38.35285 17927 ft 301 kts 274°
2026-05-06 20:44 55.64344 38.32813 17930 ft 307 kts 274°
2026-05-06 20:44 55.64589 38.27809 17928 ft 305 kts 274°
2026-05-06 20:44 55.64767 38.24113 17933 ft 305 kts 274°
2026-05-06 20:44 55.64943 38.20364 17915 ft 306 kts 271°
2026-05-06 20:45 55.64956 38.16593 17590 ft 307 kts 269°
2026-05-06 20:45 55.64968 38.12825 17243 ft 305 kts 270°
2026-05-06 20:45 55.64983 38.09084 16921 ft 303 kts 269°
2026-05-06 20:45 55.64988 38.06574 16706 ft 301 kts 269°
2026-05-06 20:46 55.64991 38.02887 16393 ft 299 kts 269°
2026-05-06 20:46 55.64994 37.99266 16089 ft 297 kts 269°
2026-05-06 20:46 55.64885 37.95646 15772 ft 294 kts 257°
2026-05-06 20:46 55.64160 37.92276 15474 ft 294 kts 240°
2026-05-06 20:47 55.62842 37.89502 15158 ft 297 kts 222°
2026-05-06 20:47 55.61055 37.87645 14850 ft 302 kts 203°
2026-05-06 20:47 55.58974 37.86956 14537 ft 309 kts 185°
2026-05-06 20:47 55.56824 37.86974 14201 ft 310 kts 181°
2026-05-06 20:48 55.54708 37.87795 13877 ft 317 kts 160°
2026-05-06 20:48 55.52792 37.89884 13241 ft 330 kts 147°
2026-05-06 20:48 55.50965 37.92366 12819 ft 331 kts 145°
2026-05-06 20:48 55.49156 37.94850 12496 ft 328 kts 146°
2026-05-06 20:49 55.47330 37.97222 12200 ft 324 kts 147°
2026-05-06 20:49 55.45503 37.99532 11920 ft 321 kts 147°
2026-05-06 20:49 55.43706 38.01845 11677 ft 317 kts 147°
2026-05-06 20:49 55.41945 38.04137 11461 ft 313 kts 147°
2026-05-06 20:50 55.40197 38.06398 11199 ft 310 kts 147°
2026-05-06 20:50 55.38459 38.08631 10933 ft 308 kts 147°
2026-05-06 20:50 55.36731 38.10851 10678 ft 306 kts 147°
2026-05-06 20:50 55.35018 38.13056 10424 ft 305 kts 147°
2026-05-06 20:51 55.33334 38.15219 10168 ft 303 kts 147°
2026-05-06 20:51 55.31635 38.17399 9903 ft 302 kts 147°
2026-05-06 20:51 55.29943 38.19566 9637 ft 301 kts 147°
2026-05-06 20:51 55.28259 38.21720 9375 ft 299 kts 147°
2026-05-06 20:52 55.26584 38.23861 9114 ft 297 kts 147°
2026-05-06 20:52 55.24880 38.25873 8866 ft 294 kts 150°
2026-05-06 20:52 55.23205 38.27912 8618 ft 293 kts 147°
2026-05-06 20:52 55.21559 38.29993 8371 ft 291 kts 148°
2026-05-06 20:53 55.19834 38.31775 8122 ft 285 kts 165°
2026-05-06 20:53 55.17909 38.32249 7768 ft 281 kts 188°
2026-05-06 20:53 55.16004 38.31436 7217 ft 287 kts 200°
2026-05-06 20:53 55.14089 38.30281 6636 ft 295 kts 205°
2026-05-06 20:54 55.12404 38.28265 6207 ft 295 kts 228°
2026-05-06 20:54 55.11314 38.25291 5889 ft 290 kts 250°
2026-05-06 20:54 55.10968 38.21861 5635 ft 287 kts 272°
2026-05-06 20:54 55.11322 38.18471 5405 ft 283 kts 284°
2026-05-06 20:55 55.12002 38.15318 5183 ft 281 kts 302°
2026-05-06 20:55 55.13334 38.12860 4966 ft 280 kts 325°
2026-05-06 20:55 55.15119 38.11541 4753 ft 280 kts 346°
2026-05-06 20:55 55.17029 38.10900 4528 ft 279 kts 349°
2026-05-06 20:56 55.18937 38.10340 4292 ft 277 kts 349°
2026-05-06 20:56 55.20830 38.09758 4076 ft 275 kts 348°
2026-05-06 20:56 55.22708 38.09152 3863 ft 274 kts 348°
2026-05-06 20:56 55.24503 38.08164 3655 ft 270 kts 332°
2026-05-06 20:57 55.26093 38.06424 3448 ft 269 kts 324°
2026-05-06 20:57 55.27622 38.04549 3220 ft 268 kts 325°
2026-05-06 20:57 55.29116 38.02767 2928 ft 255 kts 327°
2026-05-06 20:57 55.30515 38.01109 2609 ft 230 kts 327°
2026-05-06 20:58 55.31771 37.99599 2330 ft 209 kts 327°
2026-05-06 20:58 55.32898 37.98243 2074 ft 183 kts 328°
2026-05-06 20:58 55.33885 37.97071 1848 ft 161 kts 328°
2026-05-06 20:58 55.34834 37.95950 1904 ft 164 kts 329°
2026-05-06 20:59 55.35735 37.94849 1477 ft 162 kts 326°
2026-05-06 20:59 55.36604 37.93777 1234 ft 149 kts 329°
2026-05-06 20:59 55.37444 37.92819 1023 ft 137 kts 329°
2026-05-06 20:59 55.38255 37.91861 773 ft 143 kts 325°
2026-05-06 21:00 55.39099 37.90828 675 ft 152 kts 328°
2026-05-06 21:00 55.39951 37.89803 567 ft 140 kts 326°
2026-05-06 21:00 55.40589 37.89043 580 ft 73 kts 326°
2026-05-06 21:00 55.40864 37.88782 584 ft 24 kts 345°
2026-05-06 21:01 55.40963 37.88754 584 ft 14 kts 358°
2026-05-06 21:01 55.41009 37.88751 585 ft 0 kts 358°
2026-05-06 21:02 55.41014 37.88750 584 ft 3 kts 358°
2026-05-06 21:02 55.41045 37.88748 583 ft 6 kts 358°
2026-05-06 21:02 55.41095 37.88745 585 ft 9 kts 357°
2026-05-06 21:02 55.41173 37.88701 584 ft 16 kts 332°
2026-05-06 21:03 55.41262 37.88598 585 ft 15 kts 325°
2026-05-06 21:03 55.41348 37.88492 586 ft 15 kts 325°
2026-05-06 21:03 55.41434 37.88387 587 ft 15 kts 325°
2026-05-06 21:03 55.41523 37.88281 588 ft 15 kts 327°
2026-05-06 21:04 55.41614 37.88177 588 ft 16 kts 327°
2026-05-06 21:04 55.41698 37.88072 589 ft 15 kts 324°
2026-05-06 21:04 55.41781 37.87978 590 ft 10 kts 338°
2026-05-06 21:04 55.41826 37.87980 592 ft 5 kts 18°
2026-05-06 21:05 55.41854 37.88013 593 ft 4 kts 42°
2026-05-06 21:05 55.41900 37.88065 594 ft 11 kts 18°
2026-05-06 21:05 55.41980 37.88058 595 ft 12 kts 353°
2026-05-06 21:05 55.42060 37.88018 598 ft 13 kts 332°
2026-05-06 21:06 55.42142 37.87925 598 ft 14 kts 325°
2026-05-06 21:06 55.42193 37.87864 598 ft 5 kts 326°
2026-05-06 21:06 55.42236 37.87812 598 ft 9 kts 326°
2026-05-06 21:06 55.42271 37.87735 598 ft 6 kts 284°
2026-05-06 21:07 55.42267 37.87680 598 ft 4 kts 255°
2026-05-06 21:07 55.42253 37.87638 600 ft 5 kts 237°
2026-05-06 21:07 55.42246 37.87618 601 ft 2 kts 236°
2026-05-06 21:07 55.42244 37.87613 601 ft 0 kts 236°